MECHERIA current weather conditions

sailwx.info

Wind from 310 at 15 knots

Air temperature 2.0° C
Visibility: greater than 4.3 NM
Dewpoint -0.0° C

Last reported at 2017-Jan-24 00:00 UTC.
Time now 2017-Jan-24 03:09 UTC

Location: N 33°32' W 000°15'.
View on Google Maps.

See reports from other nearby stations

  
Tides and Currents Weather Stations Pressure Air Temp Water Temp Dewpoint Dewpoint Depression Visibility Wind Speed Wind Dir Waves Ship Positions
date/time (UTC)wind fromknots sea level pressurealtimeterstation pressurevisibilityair tempwater tempwave heightnotes
2017-Jan-24 00:00 310 15 4.3 2.0
2017-Jan-23 23:00 320 13 4.3 3.0
2017-Jan-23 22:00 330 15 4.3 3.0
2017-Jan-23 18:00 310 7 4.3 4.0
2017-Jan-23 17:00 300 9 4.3 5.0
2017-Jan-23 16:00 310 9 4.3 5.0
2017-Jan-23 15:00 300 12 4.3 5.0
2017-Jan-23 14:00 270 12 4.3 4.0
2017-Jan-23 13:00 270 13 4.3 4.0
2017-Jan-23 12:00 270 12 4.3 4.0
2017-Jan-23 11:00 270 13 4.3 4.0
2017-Jan-23 10:00 270 13 4.3 3.0
2017-Jan-23 09:00 280 15 4.3 2.0
2017-Jan-23 08:00 280 18 5.4 1.0
2017-Jan-23 07:00 280 20 4.3 1.0
2017-Jan-23 06:00 270 24 4.3 1.0
2017-Jan-23 05:00 290 26 4.3 2.0
2017-Jan-23 04:00 270 26 4.3 1.0
2017-Jan-22 22:00 240 15 4.3 3.0
2017-Jan-22 21:00 290 13 4.3 3.0
2017-Jan-22 20:00 330 13 4.3 3.0
2017-Jan-22 19:00 310 15 4.3 3.0 Light rain.
2017-Jan-22 18:00 320 21 4.3 3.0 Light rain.
2017-Jan-22 17:00 300 24 4.3 4.0 Light rain.
2017-Jan-22 16:00 320 24 4.3 4.0
2017-Jan-22 15:00 330 24 4.3 4.0
2017-Jan-22 14:00 290 20 4.3 3.0
2017-Jan-22 13:00 300 18 4.3 3.0
2017-Jan-22 12:00 270 18 4.3 3.0
2017-Jan-22 07:30 300 24 gusting 34 2.7 2.0
2017-Jan-22 05:30 300 26 1.6 1.0
2017-Jan-22 03:50 270 26 0.4 1.0 Snow showers.